Temp
70 69 66 65 57 51 45 48 51 54 54 56 59 57 57 55 55 49 61 66 67 67 69 71 74 75 75 75 75 75 76 76 76 76 77 76 76 76 76 76 75 75 76 77 77 76 75 74 74
68 73 67 57 50 44 46 48 53 54 57 58 59 56 55 52 58 62 62 66 68 68 68 70 72 74 74 75 75 75 75 75 77 76 76 75 76 76 76 76 76 75 76 75 76 75 74 74 73
70 69 63 51 44 45 47 50 55 55 56 56 55 56 55 54 57 62 63 67 67 67 68 69 71 74 74 74 74 74 75 75 76 76 76 76 75 75 76 76 74 74 75 75 75 75 74 73 73
67 65 59 51 45 49 51 53 56 56 56 58 57 54 56 62 61 64 66 67 66 66 67 70 72 73 74 74 74 74 74 75 75 75 75 75 75 75 75 75 74 74 75 75 74 74 73 72 72
62 58 50 45 46 49 52 55 56 55 55 54 55 52 52 60 65 66 65 67 65 65 66 69 71 72 73 73 74 74 74 74 74 74 74 74 74 74 74 74 74 73 73 73 73 72 72 72 71
59 55 47 44 46 51 52 56 58 54 55 53 54 53 54 60 64 65 65 64 65 65 66 68 67 69 71 72 72 73 73 73 73 73 73 73 73 73 73 73 73 72 72 72 72 71 71 71 70
55 51 46 44 47 51 55 59 55 55 54 55 59 52 53 61 64 65 64 64 64 65 65 66 67 67 67 69 70 71 71 71 72 72 71 71 71 71 71 71 72 72 71 71 71 71 71 70 69
54 51 43 42 47 50 56 58 59 58 56 56 57 53 52 59 64 64 64 63 63 64 64 64 65 66 66 66 66 67 69 69 69 68 67 66 67 67 67 67 70 70 70 70 70 69 70 69 68
55 48 42 47 50 52 53 57 55 57 57 54 58 56 58 63 63 63 63 63 64 65 65 63 64 65 65 65 63 64 65 65 65 64 62 61 62 63 63 64 67 68 69 69 69 68 67 66 65
53 46 49 53 53 51 54 56 58 57 53 52 53 57 60 63 63 62 62 62 63 64 65 63 63 67 65 66 63 63 63 62 61 61 60 60 60 60 62 61 63 65 65 67 67 66 63 59 56
50 50 52 54 59 55 55 53 57 56 50 57 57 56 59 62 62 63 63 64 64 64 65 64 62 67 66 63 61 61 60 60 59 59 59 59 59 58 58 58 57 57 57 56 57 56 55 55 55
50 58 55 56 56 54 54 56 55 57 59 61 62 60 60 61 62 63 63 64 64 60 63 63 62 66 68 67 63 60 60 59 58 58 58 57 56 56 55 55 55 55 55 54 54 54 55 55 55
56 57 54 55 56 55 56 55 55 55 55 56 59 60 59 61 63 64 63 63 63 60 61 62 62 63 67 65 65 60 59 59 58 58 58 57 56 55 55 55 54 54 54 53 53 53 54 54 54
58 59 55 53 55 55 53 51 53 58 55 56 58 58 59 60 61 59 59 61 61 62 62 63 62 63 64 65 65 64 60 59 58 57 58 58 57 56 55 54 54 53 53 53 53 53 53 52 53
60 53 55 51 52 52 53 50 54 53 55 55 56 57 58 59 59 60 62 62 62 63 63 62 62 63 62 62 64 64 61 60 59 58 58 58 58 57 56 55 54 54 53 53 53 52 52 51 52
52 52 49 51 51 52 53 46 56 55 54 54 53 54 56 58 60 61 62 61 61 63 62 63 65 63 62 62 62 62 62 61 60 59 58 58 58 58 56 55 54 54 53 53 52 51 51 50 50
45 38 41 50 53 50 50 48 53 52 52 53 51 54 55 57 58 59 61 61 61 63 63 63 64 63 63 63 64 63 64 63 64 64 62 61 59 59 57 56 55 55 53 52 51 50 50 49 49
39 40 42 46 51 50 47 50 53 50 51 53 51 51 53 55 59 63 60 60 61 62 64 64 64 64 64 64 63 64 65 65 66 65 64 63 62 61 60 58 55 55 54 52 50 50 49 49 49
49 43 43 45 51 47 45 47 55 50 47 49 51 51 52 55 61 58 59 59 59 60 62 62 62 62 63 61 61 60 61 63 63 65 65 64 63 61 60 60 57 56 55 53 51 50 49 48 48
46 41 42 45 46 47 43 46 53 48 50 52 52 51 53 56 56 59 56 57 58 61 62 62 64 64 64 65 64 61 61 61 64 64 64 65 63 62 61 60 58 56 55 53 50 50 48 48 48
40 40 40 44 43 43 40 41 47 49 47 50 52 54 55 58 60 61 56 56 57 58 60 62 63 64 65 66 61 59 60 59 60 61 62 63 64 62 61 60 59 58 57 55 55 54 52 50 50
38 46 47 43 41 36 41 34 41 46 48 47 51 52 57 60 58 59 56 54 54 58 60 61 62 63 63 64 62 62 63 62 63 60 60 60 60 60 59 61 60 59 57 57 57 55 54 52 52
43 46 45 40 38 34 32 34 41 41 44 49 52 55 59 62 60 54 54 55 54 54 54 58 60 61 62 62 64 62 62 62 60 58 58 58 58 60 60 60 60 59 58 58 57 53 54 53 54
46 44 40 35 35 30 36 35 35 40 49 52 55 56 55 54 54 53 51 52 51 50 49 52 58 60 61 62 62 61 61 60 57 56 58 58 60 60 61 60 60 59 58 57 57 56 53 54 53
42 39 29 28 26 28 32 32 45 47 51 55 56 54 53 50 50 49 48 47 46 48 47 48 53 56 59 61 61 61 61 62 60 58 59 59 60 59 60 59 59 58 58 57 56 54 54 53 53
40 40 29 21 22 28 32 31 40 49 57 53 51 50 49 49 48 47 47 46 47 47 47 48 49 51 52 59 61 62 62 62 61 59 59 60 60 59 60 59 58 57 55 55 54 55 54 53 52
40 35 43 30 14 22 30 34 42 49 48 49 48 47 49 50 48 46 44 45 46 47 47 48 48 49 49 49 49 53 56 60 61 60 61 61 60 57 58 58 56 56 55 55 54 53 51 51 50
44 48 38 31 20 19 28 30 35 43 48 49 49 47 47 47 48 46 45 45 45 46 47 47 47 48 48 48 47 47 47 49 55 57 57 57 56 54 53 55 55 53 52 52 51 49 48 47 46
40 40 38 40 32 25 20 32 39 50 47 50 49 48 47 48 48 46 45 44 44 44 45 46 47 47 46 46 46 46 48 47 49 55 55 54 53 53 53 52 50 49 48 48 47 46 45 44 44
45 45 46 38 28 29 27 31 44 43 45 47 49 50 48 47 47 46 45 43 42 43 44 45 45 46 46 46 46 48 49 50 52 52 52 52 51 50 49 48 47 47 46 46 46 44 44 43 41
MSLP
1013.41 1013.31 1013.48 1014.07 1016.00 1017.04 1017.50 1017.52 1017.27 1017.39 1017.61 1017.64 1017.89 1018.59 1018.94 1019.19 1019.45 1020.26 1019.60 1019.60 1019.56 1020.00 1020.12 1020.32 1020.59 1020.79 1021.01 1021.11 1021.22 1021.19 1021.21 1021.46 1021.59 1021.58 1021.51 1021.55 1021.63 1021.78 1021.82 1021.91 1021.90 1022.03 1022.11 1022.24 1022.18 1022.32 1022.43 1022.47 1022.47
1013.56 1013.37 1014.00 1015.44 1016.87 1017.81 1017.81 1017.36 1017.32 1017.32 1017.48 1017.69 1017.96 1018.50 1018.86 1019.25 1019.25 1019.58 1019.88 1019.79 1019.79 1019.98 1020.17 1020.46 1020.70 1021.01 1021.11 1021.24 1021.34 1021.42 1021.50 1021.65 1021.66 1021.87 1021.96 1022.07 1022.12 1022.27 1022.23 1022.29 1022.38 1022.51 1022.61 1022.71 1022.68 1022.77 1022.90 1022.94 1023.03
1013.67 1013.96 1015.33 1016.53 1017.81 1017.96 1017.60 1017.13 1017.12 1017.41 1017.63 1017.66 1018.30 1018.60 1018.90 1019.13 1019.38 1019.44 1019.57 1019.58 1019.98 1020.36 1020.36 1020.64 1020.81 1021.08 1021.21 1021.44 1021.60 1021.68 1021.81 1021.94 1022.03 1022.20 1022.36 1022.43 1022.51 1022.58 1022.60 1022.76 1022.90 1022.93 1023.02 1023.21 1023.19 1023.28 1023.36 1023.39 1023.50
1014.34 1014.98 1016.65 1016.97 1017.81 1017.42 1017.24 1016.86 1017.05 1017.54 1017.69 1017.76 1018.15 1018.87 1018.98 1018.88 1019.01 1019.17 1019.67 1019.75 1020.11 1020.65 1020.67 1020.83 1021.04 1021.29 1021.42 1021.64 1021.86 1022.08 1022.22 1022.24 1022.37 1022.47 1022.63 1022.77 1022.94 1023.08 1023.20 1023.22 1023.38 1023.44 1023.46 1023.56 1023.62 1023.64 1023.72 1023.81 1023.90
1015.31 1016.18 1017.21 1017.68 1017.59 1017.13 1017.00 1016.85 1017.09 1017.55 1017.60 1017.83 1018.10 1018.81 1019.14 1019.05 1018.96 1019.24 1019.76 1019.99 1020.36 1020.72 1020.94 1021.01 1021.21 1021.44 1021.58 1021.76 1022.10 1022.38 1022.46 1022.56 1022.72 1022.84 1022.95 1023.02 1023.11 1023.38 1023.64 1023.75 1023.86 1023.98 1024.04 1024.09 1024.13 1024.09 1024.16 1024.24 1024.31
1016.22 1016.98 1017.78 1018.09 1017.56 1017.03 1016.76 1016.80 1016.97 1017.47 1017.70 1018.01 1018.29 1018.81 1019.21 1019.20 1019.31 1019.51 1019.89 1020.30 1020.45 1020.70 1021.14 1021.27 1021.47 1021.66 1021.83 1022.03 1022.19 1022.53 1022.82 1022.89 1023.00 1023.11 1023.20 1023.38 1023.55 1023.61 1023.79 1023.98 1024.15 1024.30 1024.39 1024.44 1024.50 1024.49 1024.51 1024.56 1024.65
1016.62 1017.66 1018.04 1017.96 1017.53 1016.97 1016.57 1016.68 1017.03 1017.38 1017.75 1017.82 1018.10 1019.13 1019.43 1019.45 1019.36 1019.55 1020.05 1020.36 1020.65 1020.90 1021.27 1021.51 1021.74 1022.01 1022.12 1022.36 1022.49 1022.69 1022.94 1023.32 1023.47 1023.57 1023.67 1023.75 1023.92 1024.08 1024.20 1024.32 1024.45 1024.60 1024.66 1024.67 1024.75 1024.80 1024.81 1024.87 1024.97
1017.06 1017.75 1018.29 1017.97 1017.61 1016.82 1016.36 1016.57 1016.49 1017.10 1017.60 1017.68 1017.83 1018.56 1019.16 1018.94 1019.31 1019.78 1020.36 1020.80 1021.06 1021.21 1021.50 1021.80 1022.02 1022.25 1022.54 1022.62 1022.82 1022.96 1023.23 1023.56 1023.82 1023.97 1024.20 1024.30 1024.38 1024.46 1024.58 1024.77 1025.00 1025.16 1025.17 1025.23 1025.24 1025.22 1025.13 1025.23 1025.33
1016.93 1017.75 1018.21 1017.74 1017.39 1016.70 1016.43 1016.56 1016.63 1016.73 1017.36 1017.66 1017.78 1017.95 1018.20 1018.48 1019.32 1020.00 1020.64 1021.13 1021.43 1021.64 1021.76 1022.05 1022.27 1022.49 1022.80 1023.00 1023.23 1023.38 1023.50 1023.67 1023.96 1024.26 1024.54 1024.69 1024.83 1024.99 1025.16 1025.13 1025.18 1025.37 1025.44 1025.48 1025.60 1025.72 1025.82 1025.88 1025.90
1017.04 1017.72 1017.49 1016.95 1016.58 1016.35 1016.36 1016.31 1016.41 1016.86 1017.35 1017.71 1018.06 1018.19 1018.38 1018.80 1019.26 1019.75 1020.24 1020.85 1021.28 1021.55 1021.86 1022.06 1022.44 1022.50 1022.91 1023.12 1023.31 1023.54 1023.71 1024.07 1024.34 1024.55 1024.78 1024.99 1025.17 1025.35 1025.43 1025.58 1025.69 1025.83 1025.92 1025.88 1025.90 1025.98 1026.06 1026.14 1026.35
1017.04 1017.29 1016.91 1016.48 1016.27 1016.21 1016.16 1016.26 1016.29 1016.56 1017.43 1017.04 1017.38 1018.21 1018.67 1019.09 1019.34 1019.68 1020.02 1020.43 1020.86 1021.33 1021.70 1021.86 1022.20 1022.42 1022.70 1023.22 1023.43 1023.67 1023.92 1024.16 1024.49 1024.72 1024.93 1025.24 1025.46 1025.60 1025.73 1025.94 1026.13 1026.27 1026.34 1026.50 1026.61 1026.70 1026.67 1026.62 1026.63
1016.81 1016.68 1016.55 1016.16 1016.13 1016.22 1016.21 1016.03 1016.24 1016.31 1016.02 1015.88 1016.52 1017.50 1018.36 1018.81 1019.07 1019.32 1019.76 1020.20 1020.74 1021.23 1021.53 1021.79 1022.02 1022.30 1022.60 1022.99 1023.55 1023.80 1024.13 1024.39 1024.62 1024.81 1025.07 1025.31 1025.66 1025.96 1026.17 1026.25 1026.37 1026.49 1026.61 1026.77 1026.90 1026.95 1027.00 1027.02 1027.04
1016.49 1016.36 1016.34 1016.09 1015.97 1015.97 1016.11 1015.89 1016.06 1016.04 1015.96 1016.20 1016.75 1017.56 1018.11 1018.61 1018.97 1019.39 1019.68 1020.18 1020.55 1020.91 1021.22 1021.52 1021.82 1022.08 1022.35 1022.91 1023.37 1023.90 1024.13 1024.34 1024.64 1024.94 1025.17 1025.45 1025.74 1025.99 1026.21 1026.44 1026.59 1026.67 1026.76 1026.92 1027.06 1027.16 1027.17 1027.22 1027.32
1015.92 1016.03 1016.27 1016.14 1015.90 1015.83 1016.16 1016.09 1016.11 1015.84 1016.10 1016.73 1017.21 1017.63 1018.04 1018.36 1018.56 1019.24 1019.51 1019.79 1020.20 1020.47 1020.80 1021.25 1021.61 1022.05 1022.36 1022.60 1022.92 1023.38 1023.90 1024.15 1024.53 1024.84 1025.11 1025.44 1025.76 1026.09 1026.29 1026.46 1026.57 1026.80 1027.00 1027.12 1027.15 1027.25 1027.35 1027.44 1027.32
1016.01 1016.64 1016.26 1016.22 1015.95 1015.89 1016.05 1016.27 1016.13 1016.18 1016.44 1017.02 1017.52 1017.87 1018.08 1018.29 1018.56 1018.38 1018.67 1019.22 1019.74 1020.11 1020.44 1020.83 1021.23 1021.68 1022.05 1022.52 1022.90 1023.13 1023.43 1023.90 1024.21 1024.49 1024.89 1025.26 1025.49 1025.81 1026.25 1026.45 1026.57 1026.58 1026.72 1026.95 1027.15 1027.23 1027.29 1027.37 1027.42
1016.62 1016.63 1016.55 1016.21 1016.20 1016.07 1016.20 1016.15 1015.75 1016.18 1016.65 1017.30 1017.66 1017.97 1018.12 1018.17 1018.06 1018.42 1018.54 1018.86 1019.17 1019.72 1020.04 1020.32 1020.61 1021.17 1021.73 1022.02 1022.49 1022.81 1023.05 1023.52 1023.96 1024.20 1024.41 1024.65 1024.96 1025.25 1025.66 1026.21 1026.45 1026.52 1026.65 1026.84 1027.16 1027.31 1027.36 1027.48 1027.59
1016.98 1017.04 1016.92 1016.57 1016.12 1016.45 1016.62 1016.34 1015.73 1016.14 1016.71 1017.46 1017.82 1017.92 1017.93 1017.97 1018.04 1018.06 1018.14 1018.36 1018.68 1019.15 1019.58 1019.93 1020.24 1020.73 1021.13 1021.44 1021.71 1022.08 1022.43 1022.89 1023.16 1023.50 1023.84 1024.18 1024.49 1024.79 1025.13 1025.45 1025.84 1026.24 1026.58 1026.72 1026.87 1027.17 1027.44 1027.45 1027.42
1017.43 1017.54 1017.27 1016.73 1016.53 1016.52 1016.68 1016.51 1016.19 1016.36 1017.02 1017.29 1017.66 1017.87 1017.88 1017.69 1017.09 1017.26 1017.61 1018.02 1018.27 1018.56 1019.11 1019.42 1019.70 1020.16 1020.55 1020.82 1021.29 1021.41 1021.79 1022.24 1022.48 1022.80 1023.08 1023.33 1023.77 1024.12 1024.56 1024.88 1025.36 1025.82 1026.30 1026.63 1026.80 1027.05 1027.14 1027.35 1027.46
1017.15 1017.65 1017.30 1016.89 1016.68 1016.95 1016.91 1016.75 1016.09 1016.46 1016.92 1017.30 1017.55 1017.42 1017.32 1017.14 1016.27 1016.90 1017.26 1017.55 1018.03 1018.29 1018.41 1018.82 1019.25 1019.52 1020.12 1020.63 1021.09 1021.53 1021.56 1021.86 1022.07 1022.19 1022.44 1022.85 1023.08 1023.38 1023.86 1024.24 1024.69 1025.38 1025.69 1025.92 1026.40 1026.80 1027.10 1027.26 1027.22
1017.35 1017.65 1017.46 1017.25 1017.11 1017.10 1017.20 1017.08 1015.99 1016.24 1016.52 1016.49 1016.56 1016.83 1016.58 1016.50 1016.36 1016.23 1016.81 1017.14 1017.63 1017.47 1017.74 1018.18 1018.32 1018.89 1019.16 1019.69 1020.10 1020.54 1020.93 1021.18 1021.24 1021.44 1021.98 1022.17 1022.57 1022.95 1023.43 1023.81 1024.16 1024.46 1025.09 1025.69 1026.10 1026.41 1026.82 1026.89 1026.95
1017.65 1017.69 1017.74 1017.68 1017.71 1017.65 1017.71 1017.24 1016.35 1015.68 1015.59 1015.70 1015.73 1015.54 1015.67 1015.64 1015.41 1015.50 1016.00 1016.30 1016.44 1017.00 1016.91 1017.08 1017.43 1017.92 1018.28 1018.89 1019.54 1020.14 1020.53 1020.80 1021.18 1021.13 1021.48 1021.65 1021.88 1022.19 1022.63 1023.10 1023.44 1023.86 1024.26 1024.64 1024.97 1025.53 1026.08 1026.30 1026.50
1017.77 1017.57 1017.67 1018.12 1018.46 1018.42 1018.09 1017.08 1016.05 1015.52 1015.42 1015.11 1014.95 1015.05 1014.52 1014.27 1014.48 1014.83 1015.18 1015.62 1015.67 1015.71 1015.94 1016.38 1016.70 1017.12 1017.56 1018.11 1018.78 1019.19 1019.71 1019.90 1020.14 1020.35 1020.73 1021.18 1021.28 1021.69 1022.06 1022.36 1022.69 1023.07 1023.45 1023.84 1024.02 1024.38 1025.01 1025.56 1025.71
1017.66 1017.63 1018.04 1018.73 1019.11 1019.17 1018.78 1018.51 1015.46 1015.15 1014.88 1014.17 1013.93 1013.72 1013.35 1013.03 1013.56 1014.00 1014.58 1014.73 1014.70 1015.09 1015.31 1015.58 1016.02 1016.49 1016.94 1017.31 1017.66 1018.32 1018.94 1019.18 1019.61 1020.22 1020.62 1020.90 1020.93 1021.18 1021.44 1021.62 1022.09 1022.41 1022.60 1022.64 1022.99 1023.61 1024.01 1024.53 1025.00
1017.58 1018.19 1019.04 1019.81 1020.24 1019.76 1018.86 1018.67 1015.72 1014.67 1013.53 1012.98 1012.44 1012.18 1012.51 1013.23 1013.46 1013.71 1014.04 1014.46 1014.62 1014.90 1015.33 1015.60 1015.79 1016.06 1016.49 1016.86 1017.20 1017.74 1018.17 1018.60 1019.03 1019.32 1019.99 1020.34 1020.46 1020.50 1020.79 1020.88 1021.16 1021.50 1021.92 1022.18 1022.41 1022.64 1023.21 1023.62 1024.17
1017.38 1018.71 1020.21 1021.08 1021.30 1020.11 1019.38 1018.92 1014.95 1013.57 1012.71 1011.75 1011.36 1011.65 1012.29 1012.83 1013.35 1013.74 1014.07 1014.38 1014.67 1014.94 1015.26 1015.37 1015.75 1015.93 1016.26 1016.45 1016.76 1017.07 1017.37 1017.98 1018.39 1018.76 1019.11 1019.58 1019.84 1019.86 1019.92 1020.18 1020.56 1020.85 1021.05 1021.40 1021.85 1022.44 1022.89 1023.08 1023.49
1017.15 1017.96 1018.95 1020.72 1021.59 1020.63 1019.72 1017.37 1014.01 1012.45 1011.65 1011.51 1011.61 1011.68 1012.28 1012.83 1013.25 1013.65 1014.29 1014.33 1014.52 1014.99 1015.05 1015.24 1015.52 1015.85 1016.09 1016.08 1016.30 1016.77 1017.14 1017.64 1017.88 1018.33 1018.75 1019.11 1019.34 1019.34 1019.25 1019.67 1020.00 1020.28 1020.85 1021.25 1021.60 1021.84 1022.26 1022.57 1023.11
1016.54 1017.19 1017.81 1019.84 1021.90 1021.33 1018.78 1016.46 1014.41 1012.45 1011.67 1011.44 1011.60 1011.87 1012.05 1012.84 1013.13 1013.69 1014.17 1014.52 1014.97 1015.22 1015.38 1015.57 1015.72 1015.84 1016.19 1016.57 1016.70 1016.76 1016.93 1017.31 1017.51 1017.87 1018.34 1018.65 1018.91 1019.13 1019.17 1019.50 1019.93 1020.25 1020.64 1020.99 1021.24 1021.80 1022.16 1022.57 1023.02
1014.41 1015.87 1017.38 1018.77 1020.47 1020.73 1018.49 1016.97 1014.41 1012.43 1011.35 1011.26 1011.52 1011.76 1012.11 1012.59 1013.27 1013.49 1014.01 1014.80 1014.99 1015.40 1015.74 1015.90 1015.90 1016.07 1016.55 1016.75 1016.82 1016.99 1017.26 1017.41 1017.61 1017.75 1018.16 1018.59 1018.85 1019.13 1019.44 1019.58 1019.87 1020.25 1020.64 1020.97 1021.28 1021.95 1022.26 1022.79 1023.34
1014.46 1015.01 1015.93 1016.86 1018.25 1018.45 1018.03 1015.33 1012.87 1011.32 1011.58 1011.13 1011.07 1011.78 1012.12 1012.26 1012.52 1013.39 1014.37 1014.80 1015.18 1015.61 1015.80 1015.83 1016.02 1016.27 1016.60 1016.82 1016.80 1016.94 1017.29 1017.34 1017.58 1017.80 1018.06 1018.54 1018.81 1019.14 1019.44 1019.76 1020.24 1020.46 1021.06 1021.56 1021.79 1022.33 1022.87 1023.43 1023.97
1013.10 1013.43 1014.25 1015.53 1017.09 1017.67 1017.14 1013.72 1011.72 1011.50 1011.43 1011.29 1011.64 1011.73 1011.91 1012.41 1012.94 1013.52 1014.25 1014.96 1015.50 1015.70 1015.88 1016.08 1016.40 1016.47 1016.63 1016.65 1016.74 1017.04 1017.18 1017.25 1017.42 1017.68 1018.08 1018.30 1018.65 1019.00 1019.41 1019.96 1020.39 1020.87 1021.52 1021.92 1022.07 1022.68 1022.96 1023.45 1024.16
Wind_Speed
5 4 2 6 6 6 0 2 1 3 3 1 5 5 6 2 4 4 3 5 9 8 6 7 13 13 13 12 10 10 16 13 15 12 12 14 14 15 15 16 15 16 16 15 16 17 17 16 17
4 3 5 3 6 4 4 2 5 3 3 7 5 3 3 1 2 4 6 4 8 8 6 7 12 12 13 12 12 12 12 13 14 13 12 12 12 13 15 15 13 15 15 16 15 17 16 17 17
1 5 4 6 3 4 4 4 5 3 6 2 4 3 3 3 1 7 1 9 8 6 6 8 12 13 13 11 13 11 11 13 14 14 14 14 13 14 15 14 14 14 15 15 15 16 16 16 16
4 5 5 6 3 4 4 3 5 7 3 2 4 6 1 3 6 6 8 9 9 6 6 9 12 12 12 11 11 11 9 12 10 13 14 14 14 14 15 14 14 13 14 14 14 14 15 15 15
5 3 4 3 3 3 4 2 8 5 4 3 2 4 2 2 5 11 9 8 11 6 5 7 11 12 12 12 11 10 10 11 10 13 13 12 14 17 14 13 13 13 13 13 13 13 14 14 14
4 3 4 2 4 3 3 4 7 4 3 3 5 5 4 1 8 10 8 7 6 8 5 5 8 9 10 11 12 11 9 11 10 12 12 11 14 15 14 12 12 12 12 12 13 13 13 13 14
6 4 4 4 4 4 3 7 5 5 5 4 8 6 1 4 5 9 8 7 6 6 6 4 5 6 8 9 10 11 10 8 8 9 9 8 10 12 10 10 11 11 11 12 12 12 12 12 13
5 5 4 3 4 5 4 5 5 6 5 2 2 6 5 6 8 8 7 6 6 5 5 5 5 5 5 5 7 9 9 9 8 8 8 7 9 9 8 8 8 9 10 11 12 12 11 12 12
3 5 2 5 6 6 3 5 2 1 6 2 4 5 2 14 13 10 9 6 7 6 5 5 4 5 5 5 5 6 7 8 7 6 7 6 4 5 6 6 8 8 8 10 11 11 10 10 10
5 3 8 5 4 3 3 4 9 5 4 2 2 3 7 15 15 15 12 12 10 11 10 6 5 6 5 3 5 4 5 3 4 4 4 3 4 3 4 5 7 7 7 8 9 9 9 6 3
3 4 5 3 3 2 3 3 5 8 3 9 10 7 11 13 14 16 13 12 14 12 9 10 7 9 6 4 3 2 2 3 3 5 4 3 3 3 3 3 3 3 4 3 5 4 3 4 3
2 4 4 1 1 1 3 5 6 6 7 4 9 13 14 17 18 17 15 13 14 9 11 9 7 10 10 5 3 3 3 2 3 3 4 3 2 2 2 2 2 2 1 2 3 2 3 4 3
4 2 2 3 2 3 2 6 4 7 2 3 9 13 14 16 17 14 10 10 11 10 9 9 8 10 10 5 5 3 3 3 3 3 3 3 3 3 2 2 1 1 1 1 1 2 2 2 3
6 3 4 2 3 0 3 1 2 5 5 6 9 12 11 14 15 8 8 11 11 10 10 8 10 8 9 10 8 7 4 4 4 4 4 5 3 3 3 2 2 1 1 1 1 0 1 2 1
5 1 1 2 1 1 0 2 8 0 4 7 8 7 8 10 9 16 14 12 11 9 9 11 11 9 10 9 9 7 5 5 4 4 6 5 5 5 4 3 3 3 3 2 1 1 1 1 1
6 3 7 2 2 1 5 7 5 5 7 8 8 7 7 10 12 8 8 9 9 9 11 11 10 11 10 9 7 6 5 5 4 4 5 7 7 6 5 4 4 3 3 2 1 2 2 2 2
4 2 3 4 5 0 3 6 4 5 7 8 8 8 8 7 8 9 9 9 9 11 11 11 11 12 12 10 8 8 9 7 7 6 6 7 8 7 6 5 4 5 3 3 3 3 2 2 3
4 5 4 7 3 4 4 9 5 1 5 8 6 8 8 8 16 13 10 8 8 10 10 11 10 11 11 8 6 6 6 6 6 6 7 9 7 8 7 5 5 5 4 4 3 4 3 3 2
5 4 4 3 4 4 6 7 10 5 3 6 9 9 10 14 12 7 8 8 8 8 12 12 12 10 9 5 5 4 5 6 5 6 9 9 8 9 9 5 4 4 5 5 5 3 4 2 3
4 6 5 2 1 4 2 9 13 5 7 8 10 9 12 8 7 10 8 8 10 14 12 12 14 12 12 9 6 4 4 3 5 7 7 9 8 7 7 7 6 8 5 5 5 5 3 3 4
4 5 4 4 1 0 2 7 8 6 4 6 8 9 7 14 15 13 9 13 11 12 13 16 15 14 13 13 4 3 2 2 3 4 6 8 9 10 10 9 7 7 6 6 8 7 8 4 4
6 6 4 3 4 5 3 7 7 7 9 6 10 10 15 15 11 10 10 10 11 16 12 12 13 14 12 12 9 11 11 10 8 4 4 5 8 7 7 9 9 8 7 7 8 6 7 4 7
7 5 5 2 3 1 1 4 7 2 6 8 11 15 17 17 12 10 10 10 10 9 11 11 11 12 12 13 14 11 12 8 4 3 5 6 6 8 10 9 9 9 7 10 10 7 10 7 5
9 6 7 5 2 5 7 6 6 6 9 8 9 10 8 8 9 9 7 7 7 5 6 7 11 11 11 13 13 13 14 10 7 5 6 6 6 6 9 9 8 7 6 8 8 8 8 8 7
5 8 1 2 2 8 3 4 12 7 9 11 9 7 6 5 6 7 8 6 5 6 6 5 7 8 11 12 13 14 14 13 12 9 8 8 7 5 8 10 8 7 8 7 5 6 7 7 7
8 9 7 8 4 4 2 10 8 12 15 7 8 6 6 5 4 5 6 7 7 6 6 7 8 7 8 11 14 11 11 8 8 8 6 6 6 6 5 5 5 5 5 5 5 4 5 4 4
6 7 8 7 3 4 6 8 9 14 13 11 10 7 8 8 4 6 4 4 5 5 6 6 7 6 6 6 5 5 4 8 7 7 7 6 5 3 4 4 4 4 4 5 5 3 4 3 3
9 11 5 2 4 5 5 6 8 7 12 7 7 9 8 7 8 5 4 4 3 3 3 3 3 3 3 5 4 4 5 5 3 4 5 5 3 3 4 4 4 5 4 4 5 4 4 5 3
5 7 2 5 6 6 1 8 10 15 7 8 8 7 9 9 8 7 6 5 4 4 4 4 5 5 4 3 3 3 4 4 5 6 4 5 4 5 5 5 5 6 6 5 7 6 6 7 6
4 10 13 8 6 2 3 11 3 4 8 6 6 6 7 5 5 5 6 6 5 5 5 5 5 5 4 4 4 4 3 4 5 5 5 6 6 5 7 6 7 8 6 6 8 7 7 7 6
Wind_Direction
347 357 74 42 56 65 110 189 254 118 147 131 118 137 178 101 160 203 308 152 132 136 137 129 121 124 125 114 101 89 95 98 97 89 92 88 89 86 83 80 80 83 76 73 83 80 79 76 72
343 9 43 75 83 69 267 238 165 199 129 120 81 79 65 154 84 115 122 162 136 138 130 126 126 129 130 125 112 95 101 100 98 100 100 96 96 91 86 81 81 79 80 79 82 82 81 78 74
33 42 77 90 101 165 207 223 162 119 156 75 99 49 142 178 26 153 178 133 122 122 129 135 132 136 133 122 116 106 101 108 112 106 101 99 99 98 96 95 91 87 85 82 82 84 77 77 79
29 12 39 86 198 249 204 190 160 131 253 114 133 82 342 236 157 172 135 125 121 125 132 138 138 138 132 123 117 120 116 108 98 117 115 109 113 109 95 95 91 85 85 90 86 87 87 85 83
31 53 67 85 250 258 254 231 152 161 157 139 192 162 22 35 106 129 132 134 139 130 139 140 142 142 137 129 123 116 111 111 105 105 109 116 110 106 103 99 99 93 90 89 86 92 89 87 84
38 91 73 210 245 264 255 169 137 156 166 154 87 118 173 111 138 143 130 135 131 136 141 141 139 140 139 134 128 119 108 113 110 112 111 105 109 111 110 107 107 100 94 93 87 89 93 93 88
120 92 192 150 253 317 217 149 163 156 151 232 151 126 211 193 164 139 131 123 128 131 135 132 140 146 140 137 129 127 124 113 110 106 97 101 108 106 105 106 113 106 100 100 92 87 96 94 86
106 91 123 202 201 249 181 169 143 156 209 89 166 175 214 201 139 115 113 116 125 132 137 144 133 142 135 140 135 128 128 125 110 106 98 87 103 107 106 99 102 102 96 91 88 79 99 92 86
128 71 192 216 152 241 148 166 142 124 123 206 179 157 275 134 128 129 139 140 156 164 163 146 147 139 141 140 136 124 127 128 121 108 100 87 102 103 95 116 108 107 100 94 92 77 79 75 72
89 130 210 209 211 220 219 197 160 146 137 234 164 19 113 139 154 161 164 174 177 181 186 169 160 164 150 138 143 144 133 124 124 125 124 114 116 114 113 100 91 86 76 79 89 79 75 78 66
139 203 206 230 235 223 223 217 173 129 219 212 192 169 156 164 169 176 179 180 187 187 187 185 165 183 160 148 149 143 139 141 140 149 143 125 110 108 102 99 79 71 58 46 48 49 50 76 76
140 238 214 191 169 146 216 143 195 187 212 216 191 162 159 175 183 184 183 184 190 181 192 182 166 179 191 146 173 156 154 159 163 174 163 146 138 135 127 130 122 109 74 80 42 40 57 55 59
191 221 216 305 276 238 169 216 197 222 1 44 129 154 173 179 187 191 185 188 189 189 186 185 173 178 186 168 174 173 183 173 181 171 183 168 168 172 161 177 170 188 116 132 63 32 15 35 36
195 169 309 292 318 135 204 257 149 234 130 127 156 171 175 182 187 173 177 189 190 192 190 178 182 184 182 191 185 195 180 178 179 182 188 188 180 187 191 191 207 221 191 176 152 283 349 349 357
125 339 265 324 8 338 125 245 229 60 142 162 188 184 180 195 184 199 192 195 193 196 185 182 185 183 181 186 192 193 185 180 185 187 189 195 193 194 198 209 224 214 197 201 217 302 7 307 321
170 184 209 236 22 353 127 263 249 173 150 206 203 198 202 209 213 207 205 193 183 185 186 183 188 185 188 184 183 188 180 180 195 191 185 194 196 190 188 206 224 211 193 177 197 227 268 269 271
16 174 192 304 166 225 169 253 252 159 171 224 215 214 215 226 232 221 208 196 183 190 187 190 187 189 190 192 193 188 193 190 201 198 196 202 201 196 189 196 203 197 194 196 195 220 209 248 262
204 208 217 197 252 172 184 265 274 147 194 233 236 231 232 226 232 224 209 198 187 189 197 195 187 191 188 188 185 186 179 195 194 194 199 195 201 192 196 200 196 182 186 208 195 213 206 231 266
168 213 180 236 209 178 222 245 264 223 227 244 244 233 231 232 238 225 216 201 199 194 198 196 189 186 178 176 179 182 193 190 199 195 192 195 199 196 199 204 178 180 201 204 187 185 220 276 194
168 198 221 306 191 164 228 254 255 179 236 212 224 237 236 241 233 237 214 195 205 214 211 202 206 192 190 192 189 171 165 186 198 193 200 198 197 193 191 198 200 187 192 196 193 180 192 228 179
185 169 200 211 96 13 354 280 268 255 219 237 248 235 235 228 236 235 200 212 208 214 202 210 205 200 197 201 148 112 113 112 169 177 197 204 194 194 192 199 197 200 193 200 205 196 199 219 203
196 194 170 155 130 233 163 278 257 240 239 217 238 239 242 235 230 236 212 213 201 219 213 210 202 198 198 188 186 198 210 213 219 191 180 191 193 201 197 201 201 198 195 206 212 195 208 183 230
215 158 151 132 160 334 191 287 251 155 244 248 235 229 236 239 229 225 226 225 212 209 202 198 193 196 193 189 195 197 207 214 196 166 190 200 198 202 200 199 200 207 203 215 206 183 203 200 224
152 79 50 56 71 269 183 185 247 192 199 236 239 226 240 259 250 246 237 231 224 208 206 189 189 199 189 191 196 196 204 198 189 177 198 207 211 206 210 208 203 212 206 211 216 216 197 202 215
117 106 10 316 274 230 345 232 255 266 253 219 224 202 215 255 257 251 231 205 205 201 208 186 186 190 192 192 196 200 205 208 207 199 200 199 209 198 214 203 199 202 214 207 190 187 213 209 211
176 160 158 190 216 251 51 245 252 236 260 265 246 235 259 259 245 243 228 200 190 191 182 176 184 188 189 196 206 204 205 211 209 201 199 212 209 210 203 192 209 191 184 193 183 188 202 185 209
192 192 165 103 49 41 233 297 293 269 256 246 245 224 234 237 229 223 197 186 173 170 187 187 185 188 188 200 207 216 208 210 210 203 202 213 215 203 187 195 191 168 189 194 174 174 150 151 146
179 152 144 84 163 245 271 276 246 295 271 261 234 229 227 202 209 209 180 195 175 170 172 150 143 165 197 207 209 215 221 229 227 178 189 190 174 142 162 151 153 129 114 123 120 105 104 107 90
137 190 110 131 160 176 246 259 221 241 325 253 239 221 218 218 199 186 196 193 166 160 161 151 154 155 152 163 156 163 197 202 194 215 187 156 139 150 135 125 121 107 105 98 96 91 95 95 89
198 186 185 189 205 239 148 257 228 250 282 294 302 230 227 230 219 201 187 180 180 176 172 176 161 157 168 156 135 131 132 140 148 143 146 142 125 112 125 117 111 105 107 116 114 116 120 128 114